User: anonymous   Login
Location: Caltech
(34.1382°N, 118.1253°W)
Time: 17:46:07
(UTC-07:00)
Language:

OAO 2 Rocket - Orbit

View from above orbital plane
View from above orbital plane
View from above satellite
View from above satellite

Ground track
Ground track

The orbit data is extracted from the following two-line orbital elements,

1 03598U 68110B   18111.87752050  .00000084  00000-0  23620-4 0  9996
2 03598  34.9948  34.0080 0049894 212.3806 147.3820 14.54367890611432
Epoch (UTC): 21 April 2018 21:03:37
Eccentricity: 0.0049894
inclination: 34.9948°
perigee height: 676 km
apogee height: 747 km
right ascension of ascending node: 34.0080°
argument of perigee: 212.3806°
revolutions per day: 14.54367890
mean anomaly at epoch: 147.3820°
orbit number at epoch: 61143

The dashed part of the orbit path shows where the satellite is in the earth's shadow,  

DLR